User: anonymous   Login
Location: Unspecified
(0.0000°N, 0.0000°E)
Time: 20:21:18
(UTC+00:00)
Language:

TBA - TO BE ASSIGNED - Orbit

View from above orbital plane
View from above orbital plane
View from above satellite
View from above satellite

Ground track
Ground track

The orbit is defined by the following mean orbital elements,

1 68042U          26145.46920904 +.00000000 +00000-0 +38058-3 0 00002
2 68042  53.1609  53.2493 0001912  88.1855 271.9364 15.30203571    09
Epoch (UTC): 25 May 2026 11:15:39
Eccentricity: 0.0001912
inclination: 53.1609°
perigee height: 474 km
apogee height: 477 km
right ascension of ascending node: 53.2493°
argument of perigee: 88.1855°
revolutions per day: 15.30203571
mean anomaly at epoch: 271.9364°

The dashed part of the orbit path shows where the satellite is in the earth's shadow,  

DLR